Location: Goettingen
(51.5300°N, 9.9433°E)
Time: 00:44:27
(UTC+02:00)

ISS - Pass Details

Date: 22 May 2017
Orbit: 402 x 408 km, 51.6° (Epoch: 30 May)

Event Time Altitude Azimuth Distance (km) Brightness Sun altitude
Exits shadow 00:33:50 23° 98° (E) 910 -2.3 -17.5°
Drops below altitude 10° 00:35:22 10° 83° (E) 1,469 -1.0 -17.5°
Sets 00:37:31 0° 76° (ENE) 2,330 0.1 -17.6°
